| time (UTC) | temp C | wind direction | speed KPH | gust KPH | rain 1hr cm | rain 24hr cm | rain mn cm | humidity % | barometer mb |
| 20260507084531 | 12 | 79 | 4.8 | 8.0 | 0.00 | 0.00 | 0.00 | 67 | 1015.8 |
| 20260507083017 | 12 | 80 | 3.2 | 9.7 | 0.00 | 0.00 | 0.00 | 69 | 1015.8 |
| 20260507081515 | 12 | 77 | 1.6 | 6.4 | 0.00 | 0.00 | 0.00 | 69 | 1015.9 |
| 20260507080012 | 12 | 77 | 1.6 | 6.4 | 0.00 | 0.00 | 0.00 | 71 | 1015.8 |
| 20260507074523 | 11 | 80 | 0.0 | 11.3 | 0.00 | 0.00 | 0.00 | 72 | 1015.8 |
| 20260507073006 | 11 | 55 | 1.6 | 8.0 | 0.00 | 0.00 | 0.00 | 76 | 1015.7 |
| 20260507071504 | 11 | 56 | 6.4 | 11.3 | 0.00 | 0.00 | 0.00 | 77 | 1015.7 |
| 20260507070009 | 10 | 39 | 4.8 | 9.7 | 0.00 | 0.00 | 0.00 | 77 | 1015.6 |
| 20260507064600 | 10 | 55 | 8.0 | 12.9 | 0.00 | 0.00 | 0.00 | 79 | 1015.6 |
| 20260507063059 | 10 | 43 | 1.6 | 8.0 | 0.00 | 0.00 | 0.00 | 80 | 1015.6 |
| 20260507061558 | 9 | 60 | 1.6 | 6.4 | 0.00 | 0.00 | 0.00 | 80 | 1015.6 |
| 20260507060106 | 8 | 328 | 0.0 | 6.4 | 0.00 | 0.00 | 0.00 | 82 | 1015.5 |
| 20260507054558 | 8 | 5 | 0.0 | 3.2 | 0.00 | 0.00 | 0.00 | 84 | 1015.4 |
| 20260507053055 | 8 | 5 | 0.0 | 4.8 | 0.00 | 0.00 | 0.00 | 86 | 1015.2 |
| 20260507051552 | 7 | 355 | 0.0 | 0.0 | 0.00 | 0.00 | 0.00 | 87 | 1015.1 |
| 20260507050050 | 7 | 355 | 0.0 | 0.0 | 0.00 | 0.00 | 0.00 | 88 | 1014.9 |
| 20260507044549 | 7 | 355 | 0.0 | 0.0 | 0.00 | 0.00 | 0.00 | 89 | 1014.8 |
| 20260507043047 | 6 | 355 | 0.0 | 0.0 | 0.00 | 0.00 | 0.00 | 89 | 1014.7 |
| 20260507041547 | 7 | 355 | 0.0 | 0.0 | 0.00 | 0.00 | 0.00 | 88 | 1014.6 |
| 20260507040043 | 7 | 355 | 0.0 | 1.6 | 0.00 | 0.00 | 0.00 | 88 | 1014.4 |
| 20260507034554 | 7 | 355 | 0.0 | 3.2 | 0.00 | 0.00 | 0.00 | 88 | 1014.5 |
| 20260507033045 | 7 | 355 | 0.0 | 1.6 | 0.00 | 0.00 | 0.00 | 89 | 1014.4 |
| 20260507031540 | 7 | 355 | 0.0 | 1.6 | 0.00 | 0.00 | 0.00 | 89 | 1014.3 |
| 20260507030040 | 7 | 355 | 0.0 | 1.6 | 0.00 | 0.00 | 0.00 | 88 | 1014.2 |
| 20260507024551 | 7 | 355 | 0.0 | 1.6 | 0.00 | 0.00 | 0.00 | 89 | 1014.2 |
| 20260507023037 | 7 | 355 | 0.0 | 1.6 | 0.00 | 0.00 | 0.00 | 88 | 1014.1 |
| 20260507021545 | 7 | 355 | 0.0 | 1.6 | 0.00 | 0.00 | 0.00 | 88 | 1014.0 |
| 20260507020034 | 7 | 355 | 0.0 | 1.6 | 0.00 | 0.00 | 0.00 | 88 | 1013.9 |
| 20260507014540 | 7 | 355 | 0.0 | 3.2 | 0.00 | 0.00 | 0.00 | 87 | 1013.8 |
| 20260507013033 | 7 | 347 | 0.0 | 3.2 | 0.00 | 0.00 | 0.00 | 87 | 1013.7 |
| 20260507011539 | 7 | 344 | 0.0 | 3.2 | 0.00 | 0.00 | 0.00 | 87 | 1013.7 |
| 20260507010030 | 7 | 346 | 0.0 | 1.6 | 0.00 | 0.00 | 0.00 | 87 | 1013.6 |
| 20260507004527 | 8 | 346 | 0.0 | 3.2 | 0.00 | 0.00 | 0.00 | 87 | 1013.6 |
| 20260507003026 | 8 | 42 | 0.0 | 4.8 | 0.00 | 0.00 | 0.00 | 87 | 1013.7 |
| 20260507001526 | 8 | 346 | 0.0 | 4.8 | 0.00 | 0.00 | 0.00 | 86 | 1013.5 |
| 20260507000023 | 8 | 344 | 0.0 | 4.8 | 0.00 | 0.00 | 0.00 | 86 | 1013.5 |
| 20260506234520 | 8 | 26 | 0.0 | 3.2 | 0.00 | 0.00 | 0.00 | 85 | 1013.4 |
| 20260506233018 | 8 | 14 | 0.0 | 6.4 | 0.00 | 0.00 | 0.00 | 85 | 1013.3 |
| 20260506231516 | 8 | 35 | 0.0 | 6.4 | 0.00 | 0.00 | 0.00 | 84 | 1013.3 |
| 20260506230016 | 9 | 33 | 0.0 | 4.8 | 0.00 | 0.00 | 0.00 | 82 | 1013.2 |
| 20260506224514 | 9 | 26 | 1.6 | 8.0 | 0.00 | 0.00 | 0.00 | 81 | 1013.2 |
| 20260506223010 | 9 | 9 | 0.0 | 6.4 | 0.00 | 0.00 | 0.00 | 80 | 1013.1 |
| 20260506221508 | 10 | 344 | 0.0 | 6.4 | 0.00 | 0.00 | 0.00 | 79 | 1013.0 |
| 20260506220007 | 10 | 355 | 3.2 | 6.4 | 0.00 | 0.00 | 0.00 | 77 | 1013.0 |
| 20260506214505 | 10 | 36 | 1.6 | 4.8 | 0.00 | 0.00 | 0.00 | 76 | 1012.8 |
| 20260506213004 | 10 | 30 | 1.6 | 11.3 | 0.00 | 0.00 | 0.00 | 75 | 1012.7 |
| 20260506211503 | 10 | 342 | 3.2 | 8.0 | 0.00 | 0.00 | 0.00 | 74 | 1012.7 |
| 20260506210001 | 11 | 11 | 0.0 | 3.2 | 0.00 | 0.00 | 0.00 | 72 | 1012.6 |
| 20260506204502 | 11 | 60 | 0.0 | 11.3 | 0.00 | 0.00 | 0.00 | 72 | 1012.5 |
| 20260506203059 | 11 | 15 | 3.2 | 8.0 | 0.00 | 0.00 | 0.00 | 71 | 1012.4 |
| 20260506201600 | 11 | 33 | 1.6 | 8.0 | 0.00 | 0.00 | 0.00 | 70 | 1012.3 |
| 20260506200058 | 12 | 42 | 1.6 | 9.7 | 0.00 | 0.00 | 0.00 | 70 | 1012.1 |
| 20260506194556 | 12 | 44 | 3.2 | 12.9 | 0.00 | 0.00 | 0.00 | 69 | 1012.0 |
| 20260506193053 | 12 | 32 | 4.8 | 12.9 | 0.00 | 0.00 | 0.00 | 70 | 1011.8 |
| 20260506191553 | 12 | 74 | 1.6 | 14.5 | 0.00 | 0.00 | 0.00 | 70 | 1011.6 |
| 20260506190051 | 12 | 33 | 8.0 | 20.9 | 0.00 | 0.00 | 0.00 | 69 | 1011.4 |
| 20260506184549 | 12 | 49 | 4.8 | 16.1 | 0.00 | 0.00 | 0.00 | 68 | 1011.2 |
| 20260506183047 | 12 | 43 | 3.2 | 19.3 | 0.00 | 0.00 | 0.00 | 68 | 1011.0 |
| 20260506181546 | 13 | 5 | 6.4 | 16.1 | 0.00 | 0.00 | 0.00 | 65 | 1010.8 |
| 20260506180045 | 13 | 32 | 6.4 | 12.9 | 0.00 | 0.00 | 0.00 | 62 | 1010.6 |
| 20260506174554 | 13 | 44 | 3.2 | 11.3 | 0.00 | 0.00 | 0.00 | 60 | 1010.5 |
| 20260506173052 | 13 | 60 | 4.8 | 12.9 | 0.00 | 0.00 | 0.00 | 58 | 1010.3 |
| 20260506171542 | 13 | 41 | 1.6 | 14.5 | 0.00 | 0.00 | 0.00 | 58 | 1010.2 |
| 20260506170046 | 13 | 43 | 3.2 | 16.1 | 0.00 | 0.00 | 0.00 | 58 | 1010.1 |
| 20260506164541 | 13 | 36 | 8.0 | 17.7 | 0.00 | 0.00 | 0.00 | 66 | 1010.0 |
| 20260506163048 | 13 | 336 | 3.2 | 12.9 | 0.00 | 0.00 | 0.00 | 72 | 1010.0 |
| 20260506161541 | 13 | 341 | 4.8 | 9.7 | 0.00 | 0.00 | 0.00 | 72 | 1010.0 |
| 20260506160040 | 13 | 360 | 3.2 | 17.7 | 0.00 | 0.00 | 0.00 | 71 | 1009.9 |
| 20260506154541 | 13 | 355 | 3.2 | 9.7 | 0.00 | 0.00 | 0.00 | 68 | 1009.9 |
| 20260506153044 | 14 | 55 | 4.8 | 12.9 | 0.00 | 0.00 | 0.00 | 55 | 1009.8 |
| 20260506151538 | 14 | 26 | 3.2 | 8.0 | 0.00 | 0.00 | 0.00 | 56 | 1009.8 |
| 20260506150048 | 15 | 342 | 6.4 | 19.3 | 0.00 | 0.00 | 0.00 | 60 | 1009.8 |
| 20260506144558 | 15 | 64 | 12.9 | 25.7 | 0.00 | 0.00 | 0.00 | 54 | 1009.7 |
| 20260506143048 | 16 | 34 | 9.7 | 25.7 | 0.00 | 0.00 | 0.00 | 53 | 1009.7 |
| 20260506141537 | 16 | 49 | 8.0 | 25.7 | 0.00 | 0.00 | 0.00 | 52 | 1009.7 |
| 20260506140053 | 16 | 44 | 4.8 | 19.3 | 0.00 | 0.00 | 0.00 | 53 | 1009.7 |
| 20260506134535 | 15 | 47 | 4.8 | 19.3 | 0.00 | 0.00 | 0.00 | 55 | 1009.6 |
| 20260506133029 | 14 | 332 | 4.8 | 16.1 | 0.00 | 0.00 | 0.00 | 54 | 1009.6 |
| 20260506131538 | 13 | 355 | 3.2 | 11.3 | 0.00 | 0.00 | 0.00 | 71 | 1009.5 |
| 20260506130029 | 13 | 324 | 4.8 | 11.3 | 0.00 | 0.00 | 0.00 | 73 | 1009.6 |
| 20260506124528 | 13 | 5 | 3.2 | 14.5 | 0.00 | 0.00 | 0.00 | 70 | 1009.5 |
| 20260506123037 | 14 | 20 | 3.2 | 8.0 | 0.00 | 0.00 | 0.00 | 64 | 1009.4 |
| 20260506121527 | 14 | 12 | 6.4 | 14.5 | 0.00 | 0.00 | 0.00 | 60 | 1009.4 |
| 20260506120031 | 14 | 44 | 12.9 | 24.1 | 0.00 | 0.00 | 0.00 | 59 | 1009.3 |
| 20260506114523 | 13 | 17 | 4.8 | 16.1 | 0.00 | 0.00 | 0.00 | 63 | 1009.3 |
| 20260506113021 | 13 | 27 | 1.6 | 8.0 | 0.00 | 0.00 | 0.00 | 72 | 1009.3 |
| 20260506111521 | 12 | 15 | 4.8 | 11.3 | 0.00 | 0.00 | 0.00 | 76 | 1009.4 |
| 20260506110028 | 13 | 360 | 6.4 | 16.1 | 0.00 | 0.00 | 0.00 | 75 | 1009.4 |
| 20260506104525 | 13 | 328 | 3.2 | 11.3 | 0.00 | 0.00 | 0.00 | 76 | 1009.2 |
| 20260506103022 | 12 | 336 | 6.4 | 16.1 | 0.00 | 0.00 | 0.00 | 75 | 1009.4 |
| 20260506101520 | 13 | 43 | 3.2 | 17.7 | 0.00 | 0.00 | 0.00 | 69 | 1009.2 |
| 20260506100021 | 13 | 22 | 11.3 | 17.7 | 0.00 | 0.00 | 0.00 | 71 | 1009.1 |
| 20260506094518 | 13 | 53 | 6.4 | 12.9 | 0.00 | 0.00 | 0.00 | 73 | 1009.1 |
| 20260506093023 | 13 | 44 | 6.4 | 12.9 | 0.00 | 0.00 | 0.00 | 70 | 1009.1 |
| 20260506091514 | 13 | 64 | 6.4 | 17.7 | 0.00 | 0.00 | 0.00 | 72 | 1009.0 |
| 20260506090013 | 13 | 347 | 4.8 | 9.7 | 0.00 | 0.00 | 0.00 | 72 | 1009.0 |